This is the latest recevied weather packets stored in our database for station/object KB1RMA-4. If no packets are shown the sender has not sent any weather packets the latest 10 day(s).
| Time | Temp. | Humidity | Pressure | Rain* | Wind** | Luminosity | Snow |
|---|---|---|---|---|---|---|---|
| 1787515733 | 21.11° C | 88% | 1010.1 hPa | 0 mm | - | 176 W/m² | - |
| 1787515428 | 21.11° C | 90% | 1010 hPa | 0 mm | - | 187 W/m² | - |
| 1787515128 | 20.56° C | 90% | 1009.9 hPa | 0 mm | - | 267 W/m² | - |
| 1787514825 | 20.56° C | 91% | 1010 hPa | 0 mm | - | 263 W/m² | - |
| 1787514520 | 20.56° C | 92% | 1010.2 hPa | 0 mm | - | 238 W/m² | - |
| 1787514216 | 20.56° C | 94% | 1010.1 hPa | 0 mm | - | 240 W/m² | - |
| 1787513915 | 20.56° C | 94% | 1009.9 hPa | 0 mm | - | 785 W/m² | - |
| 1787513611 | 20° C | 94% | 1009.8 hPa | 0 mm | - | 253 W/m² | - |
| 1787513307 | 20° C | 95% | 1010 hPa | 0 mm | - | 242 W/m² | - |
| 1787513003 | 20° C | 94% | 1010.2 hPa | 0 mm | - | 359 W/m² | - |
| 1787512699 | 19.44° C | 94% | 1010.3 hPa | 0 mm | - | 186 W/m² | - |
| 1787512395 | 20° C | 95% | 1010.5 hPa | 0 mm | - | 385 W/m² | - |
| 1787512090 | 20° C | 95% | 1010.5 hPa | 0 mm | - | 263 W/m² | - |
| 1787511785 | 20° C | 95% | 1010.6 hPa | 0 mm | - | 231 W/m² | - |
| 1787511484 | 20° C | 95% | 1010.4 hPa | 0 mm | - | 215 W/m² | - |
| 1787511179 | 19.44° C | 95% | 1010.4 hPa | 2.29 mm | - | 233 W/m² | - |
| 1787510878 | 19.44° C | 95% | 1010.1 hPa | 2.29 mm | - | 193 W/m² | - |
| 1787510574 | 19.44° C | 95% | 1010.1 hPa | 0 mm | - | 160 W/m² | - |
| 1787510269 | 19.44° C | 95% | 1010.3 hPa | 0 mm | - | 167 W/m² | - |
| 1787509965 | 19.44° C | 94% | 1010.3 hPa | 2.29 mm | - | 178 W/m² | - |
| 1787509660 | 18.89° C | 94% | 1010.4 hPa | 4.83 mm | - | 149 W/m² | - |
| 1787509357 | 18.89° C | 94% | 1010.3 hPa | 2.29 mm | - | 135 W/m² | - |
| 1787509057 | 18.89° C | 94% | 1010.4 hPa | 1.78 mm | - | 96 W/m² | - |
| 1787508753 | 18.89° C | 93% | 1010.2 hPa | 6.6 mm | - | 75 W/m² | - |
| 1787508453 | 18.89° C | 93% | 1010.4 hPa | 9.65 mm | - | 91 W/m² | - |
* Rain latest hour (hover to see other rain measurements)
** Current wind speed in m/s (hover to see current wind gust speed)